Total_Precipitation_Accumulation
0.06 0.12 0.28 0.33 0.33 0.30 0.30 0.26 0.25 0.24 0.22 0.23 0.25 0.27 0.27 0.26 0.24 0.23 0.21 0.23 0.29 0.38 0.45 0.49 0.47 0.41 0.37 0.31 0.19 0.11 0.10 0.12 0.08 0.06 0.06 0.07 0.09 0.10 0.09 0.07 0.08 0.12 0.17
0.06 0.12 0.25 0.33 0.36 0.36 0.34 0.29 0.25 0.21 0.21 0.26 0.30 0.28 0.28 0.28 0.27 0.26 0.28 0.31 0.33 0.38 0.44 0.48 0.48 0.37 0.29 0.21 0.12 0.08 0.07 0.04 0.02 0.01 0.01 0.02 0.04 0.06 0.06 0.06 0.08 0.12 0.15
0.06 0.12 0.23 0.33 0.40 0.40 0.35 0.29 0.23 0.21 0.22 0.27 0.32 0.32 0.31 0.30 0.29 0.28 0.29 0.31 0.34 0.38 0.37 0.35 0.34 0.26 0.18 0.12 0.08 0.06 0.05 0.02 0.01 0.01 0.02 0.04 0.05 0.08 0.08 0.08 0.11 0.14 0.15
0.08 0.13 0.21 0.35 0.48 0.44 0.39 0.31 0.27 0.26 0.27 0.31 0.35 0.36 0.37 0.34 0.31 0.31 0.28 0.27 0.30 0.28 0.26 0.25 0.20 0.14 0.10 0.08 0.06 0.05 0.03 0.01 0.01 0.01 0.03 0.05 0.06 0.12 0.12 0.12 0.13 0.14 0.15
0.13 0.16 0.25 0.36 0.55 0.54 0.43 0.35 0.30 0.31 0.33 0.38 0.40 0.40 0.44 0.40 0.39 0.36 0.29 0.25 0.24 0.19 0.17 0.16 0.12 0.08 0.06 0.06 0.06 0.05 0.03 0.02 0.01 0.01 0.03 0.06 0.09 0.15 0.16 0.15 0.14 0.15 0.14
0.18 0.23 0.31 0.41 0.58 0.67 0.54 0.43 0.36 0.34 0.37 0.43 0.46 0.46 0.49 0.49 0.47 0.39 0.28 0.22 0.18 0.15 0.14 0.13 0.12 0.07 0.04 0.04 0.04 0.05 0.04 0.03 0.01 0.02 0.03 0.05 0.10 0.17 0.19 0.16 0.16 0.17 0.19
0.21 0.33 0.44 0.51 0.63 0.79 0.73 0.59 0.52 0.48 0.46 0.48 0.51 0.51 0.54 0.57 0.56 0.47 0.28 0.19 0.16 0.14 0.12 0.11 0.12 0.08 0.04 0.04 0.05 0.05 0.05 0.04 0.03 0.03 0.03 0.05 0.11 0.21 0.20 0.17 0.17 0.16 0.16
0.29 0.38 0.59 0.75 0.80 0.96 0.97 0.76 0.66 0.59 0.58 0.58 0.57 0.57 0.58 0.59 0.60 0.55 0.35 0.21 0.15 0.15 0.14 0.13 0.12 0.10 0.06 0.06 0.06 0.06 0.06 0.04 0.03 0.03 0.03 0.04 0.09 0.15 0.13 0.11 0.11 0.12 0.13
0.51 0.47 0.60 0.79 0.91 1.03 1.11 0.91 0.82 0.71 0.63 0.62 0.65 0.66 0.58 0.52 0.52 0.50 0.36 0.24 0.20 0.19 0.19 0.18 0.17 0.16 0.11 0.09 0.08 0.07 0.05 0.03 0.02 0.03 0.02 0.03 0.06 0.10 0.09 0.10 0.12 0.14 0.15
0.83 0.74 0.68 0.78 0.88 1.05 1.16 0.94 0.81 0.75 0.68 0.66 0.65 0.59 0.48 0.43 0.44 0.42 0.30 0.23 0.21 0.21 0.20 0.19 0.18 0.18 0.15 0.12 0.10 0.07 0.05 0.03 0.03 0.03 0.03 0.03 0.05 0.07 0.09 0.12 0.14 0.15 0.17
1.09 1.04 0.92 0.87 0.86 0.95 1.09 0.99 0.89 0.79 0.69 0.65 0.63 0.54 0.46 0.45 0.44 0.37 0.25 0.19 0.20 0.22 0.20 0.18 0.18 0.19 0.15 0.11 0.10 0.09 0.08 0.07 0.06 0.05 0.04 0.04 0.05 0.07 0.11 0.14 0.15 0.14 0.15
1.15 1.10 1.05 1.01 0.95 0.98 1.03 1.04 1.00 0.85 0.74 0.64 0.60 0.54 0.51 0.49 0.44 0.36 0.28 0.22 0.22 0.23 0.25 0.22 0.20 0.18 0.13 0.10 0.11 0.11 0.11 0.08 0.08 0.07 0.06 0.05 0.08 0.12 0.16 0.18 0.15 0.13 0.13
1.41 1.24 1.13 1.09 1.12 1.06 1.03 1.03 0.99 0.81 0.74 0.72 0.66 0.58 0.56 0.59 0.57 0.50 0.37 0.28 0.28 0.26 0.26 0.24 0.21 0.17 0.13 0.12 0.12 0.11 0.12 0.12 0.11 0.10 0.08 0.07 0.11 0.18 0.23 0.21 0.17 0.15 0.15
1.73 1.52 1.38 1.31 1.27 1.19 1.13 1.09 1.04 0.84 0.70 0.68 0.68 0.69 0.64 0.58 0.51 0.50 0.42 0.32 0.30 0.29 0.29 0.27 0.21 0.19 0.17 0.15 0.14 0.15 0.14 0.14 0.13 0.13 0.12 0.11 0.10 0.16 0.23 0.26 0.23 0.20 0.20
1.86 1.81 1.64 1.50 1.44 1.35 1.31 1.21 1.07 0.92 0.74 0.64 0.65 0.70 0.68 0.58 0.51 0.48 0.42 0.39 0.33 0.32 0.30 0.31 0.26 0.23 0.22 0.23 0.21 0.18 0.17 0.16 0.16 0.16 0.16 0.16 0.12 0.14 0.20 0.27 0.30 0.29 0.33
1.79 1.93 1.83 1.75 1.59 1.44 1.38 1.31 1.15 1.04 0.87 0.75 0.70 0.68 0.69 0.67 0.60 0.55 0.47 0.42 0.37 0.35 0.34 0.35 0.35 0.30 0.25 0.23 0.21 0.20 0.19 0.17 0.15 0.14 0.14 0.16 0.15 0.16 0.18 0.23 0.32 0.39 0.45
1.79 1.95 1.97 1.98 1.99 1.68 1.50 1.48 1.32 1.14 1.05 0.93 0.81 0.72 0.68 0.69 0.71 0.66 0.60 0.49 0.42 0.44 0.43 0.42 0.42 0.41 0.36 0.28 0.24 0.21 0.19 0.19 0.16 0.14 0.13 0.13 0.13 0.12 0.13 0.20 0.28 0.35 0.42
1.87 1.93 1.97 1.85 1.98 1.97 1.78 1.65 1.47 1.27 1.14 1.06 0.97 0.85 0.79 0.75 0.76 0.76 0.72 0.68 0.60 0.54 0.52 0.50 0.46 0.42 0.38 0.32 0.27 0.24 0.22 0.21 0.19 0.18 0.17 0.13 0.12 0.09 0.09 0.13 0.19 0.25 0.33
1.94 1.91 2.01 1.93 1.90 1.97 1.98 1.87 1.71 1.55 1.37 1.23 1.17 1.01 0.92 0.91 0.91 0.88 0.80 0.80 0.81 0.74 0.62 0.58 0.54 0.48 0.46 0.41 0.37 0.36 0.33 0.27 0.23 0.21 0.18 0.15 0.14 0.13 0.11 0.11 0.14 0.17 0.22
1.99 2.08 2.09 2.14 2.09 2.19 2.33 2.26 2.05 1.84 1.70 1.54 1.36 1.31 1.18 1.07 1.04 0.99 0.95 0.91 0.91 0.86 0.76 0.67 0.59 0.55 0.50 0.50 0.50 0.44 0.39 0.33 0.31 0.28 0.23 0.20 0.18 0.19 0.21 0.21 0.21 0.20 0.19
1.72 1.91 1.91 2.00 2.13 2.23 2.27 2.18 2.01 1.84 1.71 1.63 1.51 1.47 1.38 1.26 1.19 1.09 1.03 1.02 1.01 0.96 0.87 0.83 0.74 0.64 0.60 0.61 0.60 0.49 0.40 0.35 0.31 0.29 0.30 0.29 0.25 0.23 0.24 0.27 0.28 0.26 0.21
1.38 1.51 1.60 1.68 1.82 1.94 1.98 1.98 2.01 2.06 1.89 1.71 1.57 1.48 1.45 1.39 1.30 1.18 1.11 1.10 1.08 1.05 0.96 0.92 0.94 0.87 0.76 0.75 0.76 0.76 0.61 0.47 0.35 0.31 0.32 0.31 0.29 0.28 0.27 0.25 0.25 0.26 0.26
1.09 1.23 1.33 1.45 1.54 1.57 1.77 1.96 2.03 2.08 2.00 1.73 1.49 1.36 1.42 1.52 1.50 1.34 1.23 1.23 1.23 1.22 1.15 1.07 1.06 1.02 0.97 0.91 0.91 1.02 0.88 0.65 0.47 0.37 0.35 0.34 0.33 0.33 0.31 0.31 0.29 0.29 0.28
0.88 1.04 1.16 1.28 1.38 1.41 1.56 1.66 1.66 1.57 1.52 1.43 1.38 1.41 1.46 1.54 1.58 1.52 1.47 1.39 1.35 1.35 1.32 1.38 1.39 1.30 1.21 1.07 1.00 0.95 0.93 0.80 0.77 0.59 0.43 0.40 0.38 0.36 0.34 0.32 0.31 0.30 0.30
0.73 0.80 0.96 1.15 1.22 1.25 1.32 1.40 1.51 1.49 1.43 1.45 1.46 1.42 1.38 1.35 1.44 1.50 1.50 1.48 1.36 1.28 1.25 1.31 1.38 1.42 1.32 1.22 1.14 1.09 1.06 0.95 0.86 0.84 0.63 0.47 0.44 0.42 0.41 0.41 0.42 0.42 0.43
0.65 0.63 0.75 0.90 1.11 1.19 1.22 1.28 1.35 1.35 1.30 1.30 1.37 1.38 1.39 1.33 1.27 1.28 1.33 1.32 1.34 1.31 1.25 1.28 1.37 1.45 1.45 1.38 1.29 1.19 1.14 1.07 0.94 0.96 0.90 0.68 0.60 0.54 0.54 0.56 0.58 0.59 0.58